User: anonymous   Login
Location: Byszew
(52.1813°N, 19.2693°E)
Time: 17:48:17
(UTC+00:00)
Language:

Cosmos 1844 Rocket - Orbit

View from above orbital plane
View from above orbital plane
View from above satellite
View from above satellite

Ground track
Ground track

The orbit data is extracted from the following two-line orbital elements,

1 17974U 87041B   21127.85359396  .00000152  00000-0  98982-4 0  9997
2 17974  71.0063 156.5527 0013160  14.8133 157.7193 14.17275257757967
Epoch (UTC): 07 May 2021 20:29:10
Eccentricity: 0.0013160
inclination: 71.0063°
perigee height: 825 km
apogee height: 844 km
right ascension of ascending node: 156.5527°
argument of perigee: 14.8133°
revolutions per day: 14.17275257
mean anomaly at epoch: 157.7193°
orbit number at epoch: 75796

The dashed part of the orbit path shows where the satellite is in the earth's shadow,  

DLR